Regional Weather Roundup
Issued by NWS Columbia, SC

Home | Current Version | Previous Version | Text Only | Print | Product List | Glossary On
Versions: 1 2 3 4 5 6 7 8 9 10 11 12 13 14 15 16 17 18 19 20 21 22 23 24 25 26 27 28 29 30 31 32 33 34 35 36 37 38 39 40 41 42 43 44 45 46 47 48 49 50
000
ASUS42 KCAE 302110
RWRCAE
REGIONAL WEATHER ROUNDUP
NATIONAL WEATHER SERVICE COLUMBIA SC
500 PM EDT SAT APR 30 2016

NOTE: "FAIR" INDICATES FEW OR NO CLOUDS BELOW 12,000 FEET WITH NO
SIGNIFICANT WEATHER AND/OR OBSTRUCTIONS TO VISIBILITY.

NOT ALL STATIONS ARE QUALITY CONTROLLED BY THE NATIONAL
WEATHER SERVICE. USE DATA WITH CAUTION...ESPECIALLY
DEWPOINT OBSERVATIONS.

SCZ001>056-GAZ040-063>065-077-302200-
...UPSTATE SOUTH CAROLINA...

CITY           SKY/WX    TMP DP  RH WIND       PRES   REMARKS
ANDERSON       TSTM      67  65  93 VRB6      30.01S FOG
LIBERTY          N/A     65  62  91 S5        30.01R THUNDER
SPARTANBURG    PTSUNNY   73  63  68 NE9       29.99S
CLEMSON        LGT RAIN  69  65  86 E9        30.00S
GREENVILLE     TSTM      72  65  78 W5        30.03R
GREENWOOD      MOSUNNY   87  53  31 SE14      29.96S
GREER          CLOUDY    73  65  75 N7        30.00R
ROCK HILL      PTSUNNY   77  65  66 N9        30.00F
CHESTER        PTCLDY    82  59  44 SE6       29.99F
LAURENS        PTCLDY    82  63  51 S8        29.96S


...CENTRAL SOUTH CAROLINA...

CITY           SKY/WX    TMP DP  RH WIND       PRES   REMARKS
COLUMBIA APT   CLOUDY    88  62  41 S10       29.95F
COLUMBIA OWENS PTSUNNY   87  62  43 SE8G17    29.97F
MCENTIRE ANGB  PTSUNNY   83  67  58 SE8       29.97F
ORANGEBURG     SUNNY     86  62  44 S16       29.98F
SUMTER SHAW    MOSUNNY   83  65  53 S9        29.96F
NEWBERRY       PTCLDY    86  63  45 S9G16     29.98F
AIKEN          MOCLDY    84  61  45 SE14      29.98F
BARNWELL       FAIR      90  63  40 SE13      29.97S
CAMDEN         FAIR      84  64  51 SE8       29.99S
LANCASTER      PTCLDY    84  64  51 E7        29.98F
WINNSBORO      PTCLDY    86  59  39 S14G20    29.97F


...EASTERN AND COASTAL SOUTH CAROLINA...

CITY           SKY/WX    TMP DP  RH WIND       PRES   REMARKS
MYRTLE BEACH   PTSUNNY   72  59  64 N15       30.09R
N MYRTLE BCH   CLOUDY    71  63  75 E12       30.08R
CONWAY         CLOUDY    72  64  78 SE7       30.07S
MARION         MOCLDY    77  63  61 E10       30.04F
HARTSVILLE     MOCLDY   N/A N/A N/A E8G16     30.01S
FLORENCE       PTSUNNY   81  65  58 SE12      30.03S
CHARLESTON APT PTSUNNY   81  68  64 S14       30.01F
MOUNT PLEASANT FAIR      79  72  78 SE8G17    30.02F
WALTERBORO     CLEAR     84  61  45 SE13      30.01S
BEAUFORT       MOSUNNY   83  68  60 SE6       30.00F


...EASTERN GEORGIA...

CITY           SKY/WX    TMP DP  RH WIND       PRES   REMARKS
AUGUSTA BUSH F MOSUNNY   88  62  41 SE14G22   29.92F
AUGUSTA DANIEL CLOUDY    88  61  40 SE10G21   29.94F
THOMSON        MOSUNNY   89  64  43 SE7G18    29.96F
WASHINGTON     FAIR      81  63  54 CALM      29.93F
CLAXTON        FAIR      88  60  39 E6        29.94F
SYLVANIA       CLOUDY    88  65  46 SE8       29.97F
STATESBORO     CLOUDY    90  62  38 SE7       29.95F
SAVANNAH       PTSUNNY   84  66  54 E15       29.98F


...SOUTHERN NORTH CAROLINA...

CITY           SKY/WX    TMP DP  RH WIND       PRES   REMARKS
CHARLOTTE      CLOUDY    75  63  66 NE12      30.02F
MONROE         CLOUDY    75  65  70 NE8       30.01F
WADESBORO      PTCLDY    79  59  50 E9        30.02F
ROCKINGHAM     MOCLDY    74  64  69 E13       30.03F
RUTHERFORDTON  CLOUDY    72  61  68 E5        30.03F
ASHEVILLE      CLOUDY    73  58  59 SE13G20   30.02S

$$



USA.gov is the U.S. government's official web portal to all federal, state and local government web resources and services.